Wetbulb
67.24 65.27 69.91 68.64 59.37 57.27 53.81 54.98 57.63 55.38 55.77 57.83 57.74 56.25 54.46 54.95 52.51 50.20 63.59 65.17 65.11 65.87 69.70 72.13 73.89 72.94 72.65 72.90 72.76 72.89 72.80 72.05 70.94 69.84 68.28 67.82 67.41 66.99 66.65 66.49 66.46 66.73 67.37 67.99 68.71 69.56 69.31 69.42 70.39
66.86 69.48 69.37 65.08 55.84 52.40 52.80 56.84 54.59 56.57 57.66 57.94 57.10 56.12 54.79 53.41 56.91 57.54 60.84 65.85 65.78 66.51 69.02 69.63 73.77 73.97 73.74 73.74 73.55 73.35 72.53 72.05 71.07 70.24 68.89 68.39 67.96 67.62 67.25 67.09 66.90 66.77 67.37 67.80 68.31 68.93 69.47 69.45 70.22
70.41 69.73 63.62 60.45 56.70 52.81 52.12 55.70 56.36 57.35 57.23 57.10 56.32 56.90 55.77 56.25 58.33 58.96 65.00 66.50 66.45 66.61 68.17 69.87 74.42 74.42 74.17 73.82 73.70 73.45 72.28 71.51 70.26 69.22 69.27 69.28 68.79 68.39 68.04 67.60 67.18 67.16 67.07 67.77 68.15 68.87 69.39 69.56 69.69
67.42 66.32 63.70 55.30 53.44 55.63 54.98 56.31 57.33 56.89 57.25 57.39 56.68 54.13 58.28 61.27 60.03 61.85 64.74 64.69 64.39 64.25 65.05 70.47 71.80 71.79 72.37 73.37 73.12 72.71 71.96 70.68 69.83 68.46 69.00 69.38 68.75 68.47 68.03 67.94 67.64 67.30 66.95 67.36 67.83 68.70 68.99 69.57 70.38
66.92 63.04 56.98 54.87 54.93 56.43 57.25 57.93 57.57 55.29 56.22 55.81 55.73 54.23 55.98 61.44 63.06 63.49 63.59 63.66 63.17 63.76 64.53 65.95 70.41 69.51 70.27 71.24 71.62 71.76 70.87 70.43 69.29 68.65 68.44 68.31 67.97 67.95 67.66 67.91 67.59 67.45 67.23 66.61 66.72 67.57 68.61 68.84 69.41
60.76 61.15 54.04 52.56 53.30 56.60 57.56 57.73 56.42 55.85 56.09 55.98 54.72 54.81 56.32 63.36 62.52 63.16 63.42 63.69 64.34 64.10 65.70 66.48 69.53 69.69 69.95 68.86 68.09 67.44 67.05 66.81 66.84 66.76 66.91 66.86 66.69 66.82 66.62 67.07 67.66 67.45 67.12 66.59 66.59 66.54 67.38 68.65 68.40
58.83 56.97 54.30 54.40 54.02 54.92 56.42 58.36 55.76 55.50 55.70 55.33 56.87 53.53 57.81 60.39 62.20 63.65 63.34 63.81 64.04 64.61 64.14 65.26 65.20 66.64 67.20 66.29 64.62 63.78 64.24 64.68 64.91 65.02 65.09 65.17 65.47 66.02 66.23 66.51 67.28 67.15 66.93 66.69 66.16 66.21 66.53 67.84 68.08
60.00 57.79 54.31 54.86 53.37 53.84 57.96 57.57 58.70 56.02 55.67 58.22 57.78 53.12 54.52 60.93 63.15 63.17 62.78 62.32 62.52 63.12 62.64 63.72 64.17 62.81 64.18 65.20 65.64 63.43 64.22 64.29 63.97 64.06 64.04 64.14 64.85 65.47 65.92 65.92 66.49 66.59 66.93 66.36 66.79 66.30 65.95 67.01 68.14
62.16 54.87 52.66 53.54 53.54 55.12 58.20 56.87 58.79 58.91 57.11 56.88 57.17 57.08 58.99 61.56 62.14 61.27 61.33 60.74 61.25 62.14 62.34 63.29 62.47 64.07 65.18 65.53 64.96 64.29 65.63 64.52 63.89 63.84 63.48 63.53 64.24 65.43 65.56 66.31 66.48 66.19 66.45 66.18 66.03 66.19 65.67 66.86 67.84
58.07 54.52 53.75 56.32 56.46 55.75 57.08 57.54 58.01 57.16 56.63 55.84 56.53 58.49 59.08 60.14 60.34 59.69 59.90 59.61 60.31 60.59 61.54 61.84 62.76 65.07 65.54 64.53 65.60 66.09 65.24 65.10 64.51 63.68 62.91 63.39 64.12 64.53 65.06 64.60 65.02 65.23 65.75 65.71 65.78 66.05 65.77 66.75 67.26
58.27 54.66 56.54 55.91 56.29 57.08 56.87 56.56 58.34 56.15 54.57 56.41 55.05 56.63 58.89 59.48 59.97 59.68 59.32 59.59 60.43 61.51 62.11 61.50 63.72 65.48 65.65 65.09 65.20 64.71 64.85 63.51 63.29 63.26 63.26 63.31 62.77 64.28 65.08 65.56 64.56 65.56 65.49 65.72 65.27 65.77 65.18 64.94 66.68
55.76 57.46 56.84 55.26 55.87 56.86 56.34 57.64 56.04 56.29 56.29 57.75 57.31 57.23 58.65 58.89 59.44 59.73 59.60 59.74 60.50 61.01 61.24 64.02 64.84 65.79 66.42 65.87 65.01 64.81 64.34 63.93 63.86 63.25 63.83 63.77 63.49 64.65 64.69 64.03 64.84 65.03 66.12 65.95 67.20 65.92 65.30 65.95 68.71
55.98 55.87 56.35 56.42 56.54 57.63 57.80 55.76 55.76 55.98 57.59 57.78 57.69 57.76 57.89 58.96 59.68 60.87 60.71 60.81 61.48 60.90 62.26 64.40 65.47 66.16 66.78 66.11 65.42 65.25 64.62 63.82 64.58 64.13 64.60 63.60 64.53 64.42 63.55 63.68 63.58 63.93 63.75 65.08 65.65 65.75 65.16 66.41 67.60
57.40 57.09 56.19 56.75 56.67 57.61 55.23 55.79 55.35 56.85 57.38 56.28 57.30 57.68 57.79 57.51 59.45 60.80 60.63 60.99 60.94 61.06 63.37 63.50 65.09 65.96 66.12 66.01 66.23 65.16 66.04 65.01 64.63 65.05 63.86 64.27 64.21 64.55 63.79 63.51 62.73 65.05 64.30 63.51 66.54 65.77 65.63 66.27 67.40
57.40 54.15 55.43 56.06 56.26 55.77 56.78 53.33 54.31 57.12 57.95 56.88 56.55 57.15 57.91 59.09 59.97 60.15 61.41 61.85 61.63 61.59 64.22 63.15 64.64 64.33 65.73 66.30 66.39 66.45 65.98 66.64 65.05 65.44 65.27 65.08 65.86 65.47 64.21 63.61 63.55 66.01 66.45 66.37 67.06 65.39 67.46 66.51 67.65
54.41 54.51 51.12 55.26 56.15 56.18 54.89 50.23 56.15 58.23 57.61 56.76 56.99 57.65 58.09 59.07 59.90 60.70 61.72 62.68 62.53 62.35 62.49 64.05 64.50 64.62 66.08 66.52 66.25 66.21 66.45 66.46 66.16 66.16 64.33 64.11 65.13 65.32 65.14 64.15 64.40 65.25 67.72 66.85 66.04 64.69 64.95 65.57 65.48
53.20 49.14 50.87 52.24 56.56 55.43 54.20 51.60 55.89 58.10 57.50 56.66 57.18 57.61 57.91 58.53 60.10 61.23 61.89 62.74 62.41 62.98 63.68 62.70 63.64 64.64 65.85 66.76 66.68 66.80 67.24 67.12 67.26 65.20 63.30 62.54 65.39 65.24 65.93 66.17 65.62 65.97 67.12 66.97 65.61 66.52 66.20 65.99 64.78
49.41 50.48 51.57 50.96 54.68 55.53 53.65 53.02 55.95 57.43 57.03 56.71 57.01 57.80 58.24 58.52 59.60 61.20 62.22 62.63 62.37 62.99 64.53 63.36 64.83 65.65 66.05 66.04 64.50 66.77 68.07 67.36 67.59 63.96 62.08 61.57 64.70 65.14 66.02 66.81 66.25 66.67 66.45 65.94 65.75 65.70 66.60 65.49 64.36
52.67 51.72 50.87 53.20 55.09 54.09 53.36 53.27 55.15 57.43 57.09 56.43 56.69 57.07 58.58 59.13 60.44 61.55 62.45 62.68 61.85 62.62 64.46 64.22 63.23 65.34 64.52 64.36 63.92 64.83 65.94 65.30 65.76 65.66 64.11 64.38 63.47 64.63 65.82 66.58 66.26 66.23 66.05 66.04 66.52 65.20 65.85 66.09 66.01
52.75 51.16 50.84 53.05 54.91 54.25 53.42 52.78 55.14 55.49 55.56 56.38 56.56 57.10 58.52 59.54 59.58 60.53 62.04 62.27 61.82 62.66 63.92 64.19 63.70 64.06 64.83 64.92 67.21 65.91 66.52 66.43 64.71 65.82 65.72 64.62 64.64 64.64 64.96 65.83 64.75 65.10 65.22 65.65 66.04 66.60 65.33 66.44 68.18
52.23 50.94 50.86 50.83 53.64 54.87 52.98 50.83 52.68 55.20 56.11 56.57 56.81 57.94 59.21 59.78 59.36 60.11 61.06 61.73 61.65 61.49 63.48 63.80 63.46 63.58 65.04 67.05 67.10 66.32 66.84 67.16 65.97 65.47 64.98 64.64 64.12 64.72 65.20 64.94 65.00 64.92 65.11 64.60 66.91 66.59 65.70 64.25 67.09
49.73 53.32 52.17 51.34 50.52 46.91 52.81 44.59 50.94 53.38 53.45 54.84 55.98 57.20 58.36 59.86 60.35 60.56 61.20 61.46 61.22 61.65 63.85 63.82 64.10 63.83 65.64 66.75 65.41 65.58 64.92 65.06 66.42 65.99 66.82 65.90 64.94 64.99 64.86 65.31 65.32 65.50 64.47 67.04 66.25 68.56 67.30 67.59 64.25
51.02 53.78 52.29 52.03 50.15 49.58 49.22 46.75 49.82 53.09 51.27 52.44 54.66 56.70 58.64 60.32 60.26 60.19 60.74 61.55 61.24 61.66 62.97 64.30 64.65 64.73 65.59 66.05 65.83 64.86 65.08 66.44 67.16 67.06 65.72 65.76 66.06 64.87 64.80 65.08 65.51 65.54 66.84 67.87 67.06 67.49 67.19 69.70 65.49
54.58 52.24 51.76 51.55 49.97 43.70 47.77 47.28 47.58 49.77 50.62 52.10 54.34 55.91 59.25 59.91 60.08 60.70 61.74 61.79 61.03 61.57 62.70 63.92 64.66 63.91 64.72 65.40 65.25 65.36 64.91 65.26 65.30 64.82 64.93 64.54 65.91 65.20 65.26 64.91 65.70 66.67 66.93 67.35 68.13 67.80 68.02 67.92 67.20
52.28 49.97 43.87 42.61 43.54 42.49 49.80 47.05 48.82 52.18 52.63 53.39 54.33 57.35 59.57 60.01 59.75 60.09 60.56 60.10 60.69 60.70 61.37 63.39 63.97 62.93 62.69 64.46 64.17 65.00 65.53 65.13 65.47 65.20 64.47 64.21 65.07 62.62 64.97 65.73 65.73 66.83 67.14 67.44 67.76 68.35 67.90 68.02 65.33
50.33 49.80 44.74 38.76 41.16 44.33 49.38 44.59 48.95 53.09 54.03 55.02 55.97 58.23 60.55 59.60 59.79 60.20 60.70 60.52 60.42 60.83 61.16 62.28 63.10 62.63 62.79 63.62 63.86 64.89 65.73 65.61 67.05 64.56 64.36 62.64 63.69 63.53 65.63 65.68 65.95 66.04 66.57 67.39 68.13 68.50 67.98 68.16 65.73
50.25 47.45 51.77 47.32 47.85 44.55 47.12 49.64 52.56 52.89 53.70 55.80 56.41 58.89 59.87 59.64 59.62 60.02 60.53 61.32 60.63 60.81 61.48 62.40 63.26 62.79 62.88 63.12 64.46 64.37 65.48 66.64 65.95 66.07 66.37 65.46 65.36 64.89 65.69 65.68 65.97 66.18 66.26 66.86 67.43 67.56 66.21 66.73 66.74
52.07 53.13 46.92 47.78 40.47 39.47 45.06 46.50 47.61 50.91 52.65 57.11 57.67 58.77 59.39 59.39 59.36 59.99 60.50 61.43 60.41 60.84 62.42 63.13 63.61 62.09 62.62 62.97 63.66 63.84 64.84 66.20 66.41 65.99 65.70 65.57 63.69 65.24 64.48 65.67 65.89 65.94 66.11 66.49 67.53 67.79 66.31 64.89 64.62
49.19 48.20 50.02 50.24 47.70 42.41 41.60 45.52 53.57 52.59 55.39 56.78 58.61 59.36 58.85 58.90 59.14 59.83 60.60 61.70 59.73 60.76 61.60 62.90 63.41 61.51 61.82 62.53 63.18 63.58 64.46 65.31 65.42 65.78 66.09 64.38 64.99 63.49 65.56 65.65 65.70 65.29 65.80 66.91 67.77 67.68 66.00 64.55 63.61
52.44 49.83 50.59 45.83 44.77 47.42 46.87 47.97 54.74 55.09 57.09 57.97 58.69 59.20 59.03 59.39 59.47 60.22 60.76 61.26 58.98 60.11 61.02 62.07 63.14 61.34 61.05 62.24 62.59 62.77 64.33 65.00 65.46 65.70 66.76 66.01 65.63 62.87 62.92 64.94 65.22 65.29 65.57 66.26 66.45 65.87 65.55 63.93 62.89
MSLP
1012.15 1011.26 1010.06 1009.38 1007.71 1004.77 1002.40 1001.15 1002.09 1002.31 1002.43 1003.73 1004.41 1004.72 1004.94 1005.22 1005.44 1006.41 1008.50 1008.78 1009.25 1009.37 1009.95 1011.57 1012.57 1012.82 1012.90 1013.01 1013.22 1013.48 1013.78 1014.04 1014.09 1014.20 1014.36 1014.55 1014.68 1014.67 1014.65 1014.71 1014.65 1014.63 1014.60 1014.63 1014.61 1014.54 1014.45 1014.33 1014.25
1010.64 1010.34 1009.53 1007.88 1005.75 1002.80 1001.61 1001.65 1002.00 1002.50 1003.30 1004.36 1004.73 1004.89 1005.01 1005.31 1006.51 1006.98 1007.76 1008.86 1009.22 1009.57 1010.25 1010.46 1011.87 1012.31 1012.52 1012.72 1012.98 1013.22 1013.46 1013.66 1013.80 1013.86 1014.02 1014.13 1014.20 1014.24 1014.23 1014.28 1014.39 1014.44 1014.34 1014.42 1014.41 1014.36 1014.32 1014.24 1014.10
1010.32 1009.81 1008.13 1005.82 1004.02 1002.25 1001.59 1002.20 1002.45 1002.97 1003.88 1004.28 1004.23 1005.07 1005.48 1006.10 1007.29 1007.45 1008.51 1009.15 1009.35 1009.67 1009.95 1010.61 1011.67 1012.12 1012.38 1012.58 1012.70 1012.92 1013.09 1013.30 1013.43 1013.49 1013.50 1013.55 1013.66 1013.73 1013.86 1013.90 1014.04 1014.15 1014.15 1014.11 1014.14 1014.11 1014.03 1013.95 1013.90
1009.58 1008.70 1007.53 1005.44 1003.28 1002.74 1002.74 1002.82 1003.16 1003.26 1003.26 1004.19 1004.28 1004.62 1006.05 1007.24 1007.63 1007.98 1008.67 1009.16 1009.30 1009.15 1009.53 1010.75 1011.53 1012.03 1012.30 1012.34 1012.46 1012.70 1012.91 1013.03 1013.17 1013.16 1013.08 1013.05 1013.12 1013.30 1013.53 1013.61 1013.67 1013.82 1013.92 1013.89 1013.95 1013.95 1013.82 1013.79 1013.61
1008.96 1007.39 1005.55 1004.19 1002.92 1002.43 1002.97 1003.23 1003.44 1003.45 1003.14 1003.44 1004.36 1004.72 1005.54 1007.20 1008.05 1008.40 1008.83 1009.28 1009.31 1009.46 1009.64 1010.15 1011.46 1011.86 1012.12 1012.24 1012.34 1012.55 1012.60 1012.73 1012.82 1012.87 1012.85 1012.83 1012.89 1012.95 1013.01 1013.05 1013.25 1013.32 1013.54 1013.62 1013.69 1013.77 1013.67 1013.56 1013.53
1007.47 1006.21 1004.91 1003.17 1002.33 1002.99 1002.65 1003.25 1003.67 1003.44 1003.32 1003.36 1004.56 1004.95 1005.51 1006.84 1007.91 1008.32 1008.78 1009.06 1009.43 1009.79 1010.19 1010.40 1011.40 1011.83 1012.18 1012.40 1012.52 1012.61 1012.65 1012.82 1012.85 1012.78 1012.79 1012.80 1012.74 1012.63 1012.63 1012.52 1012.59 1012.85 1013.09 1013.23 1013.37 1013.47 1013.53 1013.42 1013.40
1006.98 1005.53 1004.32 1003.51 1002.68 1002.45 1002.61 1003.35 1003.67 1003.39 1003.44 1003.51 1004.11 1005.10 1005.52 1006.51 1007.48 1008.44 1008.82 1009.28 1009.65 1009.89 1010.22 1010.47 1010.88 1011.32 1011.81 1011.96 1012.25 1012.47 1012.73 1012.81 1012.74 1012.65 1012.62 1012.55 1012.41 1012.29 1012.20 1012.09 1011.98 1012.32 1012.66 1012.92 1013.02 1013.16 1013.24 1013.23 1013.15
1006.63 1005.63 1004.39 1003.47 1002.33 1002.15 1002.37 1002.96 1003.02 1003.58 1003.59 1004.39 1005.13 1004.97 1005.24 1006.25 1007.59 1008.42 1008.66 1008.91 1009.37 1009.58 1009.70 1010.17 1010.41 1010.42 1010.89 1011.09 1011.82 1012.25 1012.45 1012.58 1012.53 1012.43 1012.25 1012.22 1012.21 1011.98 1011.79 1011.68 1011.60 1011.84 1012.15 1012.43 1012.66 1012.85 1012.96 1012.98 1012.96
1006.11 1005.41 1003.81 1002.98 1002.30 1002.00 1002.25 1002.35 1002.52 1003.26 1004.01 1004.18 1004.72 1005.30 1005.97 1006.77 1007.50 1007.83 1008.07 1008.31 1008.55 1009.04 1009.49 1009.84 1010.17 1010.57 1010.87 1010.96 1011.08 1011.67 1011.65 1011.81 1011.99 1011.80 1011.72 1011.90 1011.52 1010.81 1010.72 1010.76 1010.88 1011.33 1011.78 1012.05 1012.43 1012.48 1012.59 1012.73 1012.71
1005.57 1004.55 1003.50 1002.97 1002.66 1002.68 1002.72 1002.40 1002.12 1002.59 1003.23 1003.77 1004.63 1005.48 1006.55 1007.00 1007.21 1007.34 1007.58 1007.73 1007.98 1008.66 1009.04 1009.70 1010.27 1011.03 1011.16 1010.84 1010.74 1010.94 1010.93 1011.59 1011.79 1011.84 1011.92 1011.58 1011.25 1011.00 1010.64 1010.75 1010.93 1011.26 1011.47 1011.73 1011.94 1012.14 1012.25 1012.46 1011.80
1004.60 1003.95 1003.71 1003.33 1003.31 1002.91 1002.64 1002.44 1002.03 1002.50 1002.74 1002.75 1003.46 1004.07 1005.54 1006.37 1006.77 1007.04 1006.98 1007.37 1008.15 1008.80 1009.10 1009.58 1010.46 1010.98 1011.15 1010.72 1010.67 1010.80 1010.62 1011.65 1011.95 1011.73 1011.70 1011.55 1011.35 1010.55 1010.38 1010.42 1010.21 1010.85 1011.28 1011.36 1011.48 1011.68 1011.69 1011.40 1011.24
1003.71 1003.79 1003.77 1003.57 1003.38 1002.73 1002.48 1002.27 1002.28 1002.60 1002.74 1002.98 1003.68 1004.14 1004.76 1005.72 1006.16 1006.69 1006.97 1007.53 1008.24 1008.84 1009.36 1009.87 1010.30 1010.79 1011.00 1010.87 1010.44 1010.17 1010.48 1011.41 1011.00 1011.04 1011.20 1010.97 1010.53 1010.40 1010.59 1010.27 1010.15 1010.30 1010.47 1010.72 1011.12 1010.96 1010.53 1010.78 1010.75
1003.26 1003.60 1003.71 1002.90 1002.58 1002.33 1002.27 1002.31 1002.45 1002.39 1002.40 1002.96 1003.57 1004.01 1004.46 1005.10 1005.79 1006.51 1007.22 1007.92 1008.69 1009.03 1009.41 1009.95 1010.41 1010.65 1010.93 1010.79 1010.50 1010.51 1011.00 1011.00 1010.17 1010.10 1010.22 1010.67 1010.35 1010.35 1010.32 1010.04 1009.98 1009.52 1009.84 1010.32 1010.96 1010.37 1010.16 1010.15 1010.82
1003.06 1002.79 1002.65 1002.32 1002.01 1002.15 1002.34 1002.13 1002.44 1002.40 1002.50 1003.11 1003.41 1003.66 1004.08 1004.83 1005.62 1006.47 1007.68 1008.15 1008.80 1009.20 1009.50 1009.93 1010.24 1010.48 1010.46 1010.62 1010.66 1010.78 1010.58 1010.56 1009.81 1009.36 1009.92 1010.07 1010.14 1010.33 1010.23 1009.93 1009.74 1009.67 1009.78 1010.17 1010.57 1010.20 1009.78 1010.42 1011.02
1002.43 1002.39 1002.16 1002.00 1001.78 1001.82 1002.03 1002.01 1001.55 1002.28 1002.24 1002.28 1002.77 1003.53 1003.93 1004.29 1005.18 1006.29 1007.41 1008.23 1008.76 1009.06 1009.51 1009.80 1010.06 1010.09 1010.20 1010.20 1009.98 1010.27 1010.09 1010.04 1009.77 1009.41 1009.74 1009.41 1009.69 1010.03 1010.02 1009.72 1009.48 1009.70 1009.54 1009.89 1009.99 1010.29 1010.04 1010.73 1010.88
1002.18 1001.97 1001.29 1000.64 1000.56 1001.29 1002.14 1001.18 1000.64 1001.18 1001.58 1001.92 1002.41 1002.66 1003.25 1003.93 1005.10 1006.23 1007.18 1008.19 1008.79 1009.05 1009.25 1009.64 1009.68 1009.73 1009.72 1009.90 1009.72 1009.67 1009.42 1009.57 1009.58 1009.58 1009.81 1009.74 1009.49 1009.48 1009.71 1009.57 1009.47 1009.62 1009.75 1009.93 1009.97 1009.65 1010.07 1010.33 1010.49
1001.72 1000.91 1000.33 999.82 999.65 1000.70 1001.30 1000.99 1000.50 1000.52 1000.85 1001.29 1001.68 1001.99 1002.69 1003.72 1005.25 1006.26 1007.23 1008.07 1008.66 1008.93 1009.19 1009.39 1009.61 1009.54 1009.64 1009.49 1009.16 1009.06 1009.39 1009.37 1009.47 1009.57 1009.88 1009.69 1009.31 1009.04 1009.28 1009.43 1009.52 1009.45 1009.79 1009.79 1009.30 1009.42 1009.60 1010.17 1010.41
1000.20 999.72 999.33 999.25 998.99 1000.02 1000.38 1000.27 1000.09 999.90 1000.15 1000.45 1000.61 1001.35 1002.02 1003.21 1004.59 1006.09 1007.14 1007.81 1008.43 1008.77 1009.16 1009.36 1009.38 1009.43 1009.56 1009.01 1008.91 1008.68 1009.15 1009.13 1009.15 1009.51 1009.59 1009.52 1008.95 1008.77 1008.75 1009.01 1009.30 1009.55 1009.78 1009.76 1009.78 1009.86 1010.04 1009.73 1009.98
999.75 999.16 998.62 998.43 998.70 999.26 999.66 1000.03 999.85 999.41 999.31 999.48 999.81 1000.22 1001.32 1002.59 1004.13 1005.80 1006.97 1007.69 1008.24 1008.68 1008.93 1009.03 1009.15 1009.31 1009.33 1008.63 1008.38 1008.35 1009.01 1008.41 1008.61 1008.98 1009.12 1008.86 1008.90 1008.50 1008.49 1008.84 1009.12 1009.49 1009.74 1009.74 1009.64 1009.67 1009.95 1009.95 1009.82
999.58 999.13 998.94 999.09 999.10 999.38 999.69 999.68 999.51 999.12 998.72 998.63 998.80 999.37 1000.65 1002.27 1003.82 1005.31 1006.61 1007.44 1007.92 1008.26 1008.56 1008.79 1008.87 1009.07 1009.11 1008.58 1008.45 1008.70 1009.02 1008.67 1008.59 1008.45 1008.62 1008.44 1008.17 1008.36 1008.51 1008.70 1008.69 1008.95 1009.50 1009.78 1009.74 1009.83 1010.04 1010.14 1010.54
998.84 998.96 998.99 999.15 999.14 999.33 999.66 999.12 998.22 997.84 997.64 997.90 998.24 999.01 1000.05 1001.63 1003.33 1004.88 1006.16 1007.01 1007.57 1007.97 1008.31 1008.44 1008.72 1008.99 1009.10 1008.81 1008.32 1008.39 1008.60 1008.83 1008.73 1008.36 1008.14 1008.40 1008.39 1008.20 1008.43 1008.60 1008.42 1008.90 1008.84 1009.55 1009.83 1009.83 1009.61 1010.01 1010.82
998.03 998.87 999.27 999.47 999.71 999.24 999.33 997.92 997.86 997.33 996.82 997.19 997.56 998.48 999.69 1001.11 1002.91 1004.44 1005.67 1006.65 1007.22 1007.53 1008.02 1008.32 1008.56 1008.77 1008.83 1008.88 1008.45 1008.45 1008.64 1008.60 1008.53 1008.40 1008.49 1008.50 1008.40 1008.39 1008.34 1008.54 1008.60 1008.74 1008.48 1008.74 1009.50 1009.95 1010.13 1010.42 1011.17
997.84 998.66 998.93 999.54 1000.05 999.77 999.25 998.40 997.16 996.49 996.10 996.60 996.88 997.37 998.73 1000.48 1002.35 1003.85 1005.13 1006.14 1006.81 1007.28 1007.83 1008.17 1008.38 1008.60 1008.83 1008.92 1008.83 1008.37 1008.55 1008.59 1008.73 1008.59 1008.60 1008.60 1008.52 1008.54 1008.50 1008.64 1008.66 1008.66 1008.73 1009.04 1009.64 1010.02 1010.22 1010.40 1010.86
998.08 998.65 999.23 999.65 999.99 999.33 998.71 997.98 996.39 995.59 995.81 996.40 996.57 997.12 998.61 1000.15 1001.98 1003.52 1004.88 1005.88 1006.49 1007.13 1007.57 1008.06 1008.22 1008.48 1008.67 1008.59 1008.83 1008.84 1008.81 1008.65 1008.56 1008.64 1008.81 1008.68 1008.91 1008.87 1008.75 1008.90 1009.11 1009.13 1009.28 1009.37 1009.79 1009.99 1010.53 1010.83 1011.50
997.70 998.53 998.80 999.35 999.02 998.01 997.32 997.03 996.25 996.04 996.05 996.32 996.53 997.17 998.61 1000.21 1001.86 1003.26 1004.46 1005.38 1006.16 1006.79 1007.35 1007.85 1008.00 1008.30 1008.52 1008.44 1008.71 1008.78 1008.43 1008.74 1008.70 1008.76 1009.04 1008.94 1009.22 1009.19 1009.09 1009.15 1009.31 1009.37 1009.39 1009.55 1009.99 1010.39 1010.94 1011.34 1011.68
996.87 997.81 997.69 997.75 997.44 996.56 996.67 996.45 995.54 995.78 996.12 996.56 997.00 997.56 998.79 1000.42 1001.79 1003.06 1004.22 1005.05 1005.86 1006.55 1007.15 1007.35 1007.81 1008.15 1008.37 1008.46 1008.68 1008.77 1008.66 1008.72 1008.98 1009.25 1009.56 1009.72 1009.63 1009.56 1009.45 1009.52 1009.50 1009.45 1009.52 1009.78 1010.32 1010.91 1011.44 1011.79 1012.31
995.93 996.93 997.69 997.72 997.35 996.90 995.93 995.51 995.37 995.78 995.82 996.08 996.84 998.06 999.22 1000.51 1001.75 1002.94 1003.95 1004.83 1005.57 1006.30 1007.00 1007.38 1007.63 1007.98 1008.21 1008.53 1008.70 1008.76 1008.77 1008.83 1009.32 1009.43 1009.66 1009.90 1009.94 1009.83 1009.75 1009.66 1009.73 1009.77 1010.06 1010.40 1010.84 1011.39 1011.70 1012.38 1013.13
994.92 996.34 997.12 997.36 997.24 996.76 995.78 995.08 994.72 995.23 995.26 996.07 997.05 998.17 999.50 1000.63 1001.71 1002.79 1003.71 1004.70 1005.40 1006.15 1006.87 1007.36 1007.69 1007.93 1008.17 1008.43 1008.45 1008.63 1008.69 1008.74 1008.92 1009.00 1009.24 1009.76 1010.19 1010.04 1009.95 1010.09 1010.18 1010.33 1010.52 1010.94 1011.19 1011.59 1012.22 1012.95 1013.96
994.56 994.96 995.99 996.72 996.84 996.17 995.55 994.51 994.20 994.78 995.43 996.13 996.80 998.20 999.50 1000.47 1001.39 1002.42 1003.41 1004.52 1005.20 1005.96 1006.50 1007.20 1007.49 1007.80 1008.14 1008.37 1008.58 1008.71 1008.71 1008.94 1008.97 1008.99 1009.29 1009.98 1010.07 1010.49 1010.35 1010.33 1010.45 1010.72 1010.99 1011.21 1011.45 1011.86 1012.44 1012.98 1013.94
993.76 994.32 995.16 995.79 996.55 996.17 995.17 994.25 994.45 995.19 995.55 996.22 996.60 998.11 999.38 1000.27 1001.16 1002.02 1002.96 1004.13 1004.85 1005.61 1006.11 1006.90 1007.24 1007.51 1007.94 1008.22 1008.48 1008.81 1008.88 1009.08 1009.12 1009.16 1009.52 1010.14 1010.32 1010.91 1011.10 1010.96 1011.05 1011.15 1011.31 1011.61 1011.68 1011.94 1012.56 1013.25 1013.68
Wind_Speed
12 12 8 6 9 9 14 2 6 10 3 5 3 7 13 10 9 6 6 6 4 4 9 14 13 14 14 14 14 13 13 13 12 12 13 13 12 13 13 13 13 12 12 11 11 11 10 12 12
12 10 6 9 9 12 1 9 7 10 9 1 3 5 6 5 6 3 6 7 5 5 3 5 19 17 15 14 13 12 13 12 12 12 13 13 13 14 14 15 14 13 13 13 13 12 12 12 12
10 8 10 11 13 13 11 8 11 7 0 8 5 2 5 8 4 4 9 7 5 4 7 7 16 14 13 13 12 12 12 12 13 14 15 16 16 16 16 16 15 14 14 13 13 13 13 13 12
8 7 8 10 18 9 6 13 10 13 5 5 6 8 7 7 3 2 7 4 4 5 1 15 12 9 11 13 13 12 13 13 14 15 16 16 18 18 17 18 18 15 15 14 11 11 13 14 12
8 8 11 16 15 9 4 10 10 9 8 3 2 7 1 8 4 4 4 3 4 6 6 3 8 3 7 10 10 10 9 10 12 13 14 15 17 18 18 19 18 18 16 15 13 12 12 13 13
9 10 12 14 7 8 4 5 7 11 7 2 4 6 2 13 7 5 4 3 3 4 3 4 9 6 3 3 2 3 5 6 9 11 12 14 16 18 17 19 18 19 18 16 14 14 13 13 11
14 11 16 16 16 13 5 5 11 11 12 7 4 8 2 8 7 5 4 3 3 1 3 2 5 2 10 8 6 2 5 8 10 12 13 14 16 17 16 17 18 18 18 17 15 16 14 12 10
12 13 20 15 13 12 11 1 11 7 8 5 3 6 9 8 10 8 7 7 6 7 5 4 6 7 5 6 10 3 7 8 10 13 14 13 14 16 17 18 16 16 18 18 16 15 14 11 11
13 14 15 18 16 10 12 12 3 4 10 6 5 7 6 6 10 9 8 7 5 3 5 6 6 6 6 7 5 4 9 6 9 10 9 9 9 10 9 14 13 15 17 13 14 14 13 9 9
16 14 20 15 14 12 16 17 17 6 10 8 9 7 4 7 10 10 10 8 6 4 4 5 3 5 7 7 6 8 6 5 8 8 9 8 8 9 9 6 9 13 15 15 14 14 13 10 10
20 17 18 17 15 14 15 17 9 8 10 8 3 7 14 12 11 11 9 2 5 4 4 6 4 4 6 6 5 5 2 3 5 7 7 6 6 8 4 6 8 8 13 9 12 11 10 13 9
21 19 19 16 19 16 13 10 9 7 10 4 5 4 8 13 12 12 9 4 4 3 4 4 3 4 5 5 6 6 4 4 6 7 8 6 6 5 5 5 7 6 7 10 7 7 10 12 8
18 17 21 22 17 15 13 9 11 11 6 4 4 7 10 12 11 9 6 3 1 3 3 4 4 4 4 5 7 5 6 6 6 6 5 7 5 4 5 6 7 7 8 7 7 9 7 9 9
22 24 19 17 17 15 11 16 7 12 1 4 9 11 10 9 12 10 7 6 3 1 2 3 4 4 5 5 6 4 5 8 9 3 4 6 7 5 5 6 7 6 5 7 8 9 7 5 10
20 19 20 18 18 16 12 17 16 12 9 10 9 9 13 13 12 11 10 6 4 3 1 3 5 3 4 8 7 5 7 6 6 6 4 8 6 7 6 5 6 6 7 7 9 7 6 7 9
20 23 20 21 23 15 10 19 16 14 12 12 13 13 11 12 10 11 8 7 5 4 2 2 4 4 5 7 7 5 6 5 5 3 2 9 10 8 5 5 4 5 6 7 8 9 10 10 9
20 18 23 20 12 14 17 20 19 7 10 12 12 12 11 11 12 11 9 9 6 4 4 2 3 5 6 7 6 5 5 4 2 2 2 6 10 10 6 5 5 6 6 6 9 6 8 8 5
22 24 20 17 14 13 16 19 19 16 16 15 16 12 11 13 15 13 11 9 7 5 4 2 3 4 6 9 4 3 4 2 2 3 3 7 7 8 7 6 7 6 6 7 5 6 5 8 6
22 20 17 13 6 14 10 16 20 20 15 17 17 12 12 13 13 14 12 10 7 5 5 4 1 3 5 7 6 6 4 3 2 3 7 7 9 9 7 5 7 7 6 7 8 8 6 4 7
24 20 18 15 14 9 13 19 20 20 21 19 17 14 10 13 14 15 14 12 9 7 5 4 2 2 4 5 5 5 3 5 3 5 3 4 4 5 5 7 9 9 7 7 7 7 6 5 5
23 20 16 17 15 10 13 23 22 15 11 13 12 7 10 14 16 16 15 13 10 8 6 4 2 2 3 5 1 3 3 2 2 4 5 4 2 5 6 8 6 8 8 8 7 5 5 6 5
21 18 18 15 15 13 14 16 16 16 9 10 13 13 11 13 16 16 15 13 10 8 7 5 3 1 4 6 4 4 3 4 3 2 4 3 4 3 8 9 9 9 7 8 7 5 5 8 9
17 17 15 12 15 17 18 13 16 11 10 6 10 14 14 15 17 17 16 14 11 8 8 5 4 4 3 4 6 7 8 3 3 1 4 7 5 4 5 8 9 8 5 8 7 7 7 5 9
20 14 13 9 11 16 18 16 15 9 3 5 5 4 14 15 17 17 16 14 11 9 9 6 5 4 2 3 5 4 5 7 6 3 3 5 5 3 4 9 6 7 6 7 8 9 9 9 9
14 13 10 13 14 14 15 10 10 14 5 7 4 8 11 14 17 17 17 15 12 11 10 7 6 6 3 4 4 5 6 7 8 6 4 6 5 4 5 7 6 6 9 10 9 9 11 12 12
21 19 12 14 13 13 10 7 7 1 2 3 3 3 13 14 16 18 17 14 13 12 10 7 6 6 4 5 4 4 8 8 6 7 5 2 4 5 6 7 7 6 9 10 11 9 9 12 11
17 21 19 19 17 12 9 8 8 6 11 9 5 4 11 15 17 18 17 14 12 12 10 8 6 6 5 5 4 4 5 9 5 8 6 5 5 4 7 9 9 9 11 11 12 9 12 12 11
22 19 19 13 16 15 12 11 4 10 2 8 7 8 13 17 18 16 16 14 11 11 10 9 7 7 6 5 4 5 5 7 7 6 7 7 5 8 7 7 9 10 11 12 12 10 12 11 9
21 21 14 14 12 11 10 8 9 5 6 3 9 11 16 17 17 16 15 14 12 12 12 10 8 8 7 6 5 5 6 7 6 7 9 8 9 6 7 8 9 9 11 11 11 11 12 13 10
25 25 22 11 17 12 13 2 9 7 7 2 11 13 16 17 16 16 16 14 13 13 12 11 9 9 8 7 7 6 6 7 7 9 11 11 9 7 5 7 8 9 10 8 12 13 12 12 11
Wind_Direction
169 179 212 228 242 224 263 237 29 291 210 82 0 319 344 325 353 10 102 100 100 97 123 162 177 193 204 210 218 226 234 239 246 246 246 248 256 273 284 288 289 287 278 269 263 273 259 262 269
166 186 217 273 260 263 44 29 331 358 7 338 250 259 259 6 33 87 184 142 150 131 163 207 175 197 210 217 224 233 241 249 258 255 253 255 258 264 271 276 278 278 274 264 263 258 258 253 262
220 222 271 244 240 271 337 19 1 348 250 253 255 139 351 52 84 27 73 150 183 198 178 160 174 197 215 229 236 244 258 267 274 274 271 270 270 269 272 268 268 268 267 263 262 260 256 249 250
188 203 235 253 282 302 347 334 339 312 210 239 306 299 126 66 122 91 121 188 233 245 153 126 148 184 227 240 243 250 262 272 276 276 274 275 276 277 272 269 261 254 254 258 262 267 265 259 245
239 263 263 257 261 289 328 312 340 301 290 302 116 301 148 137 116 144 165 230 267 299 337 38 120 167 246 254 258 263 278 283 279 284 285 289 287 280 273 265 258 245 240 245 248 261 275 268 264
233 236 273 272 301 261 299 4 314 289 290 249 268 304 19 117 167 172 179 201 323 331 0 296 127 160 128 73 26 346 328 306 295 289 287 286 283 279 276 267 252 242 235 233 244 253 262 275 264
253 270 269 286 290 298 306 50 287 313 304 314 40 302 68 166 162 158 177 178 219 214 218 274 294 212 181 182 146 63 330 313 304 296 288 280 279 275 271 269 255 234 231 234 237 247 255 270 256
255 261 269 274 278 279 297 141 269 280 312 14 329 275 337 118 143 178 205 189 205 193 253 323 256 279 301 286 161 90 310 309 311 301 289 286 283 270 264 260 248 234 225 226 227 236 245 259 247
237 258 262 269 283 305 305 289 254 153 280 211 274 279 38 128 168 199 209 210 234 265 244 253 297 330 314 285 288 246 255 269 290 285 280 278 270 278 271 252 235 221 221 214 223 232 239 250 245
233 247 259 288 304 302 302 298 300 246 245 224 222 236 205 196 196 215 208 227 211 263 312 311 317 322 300 278 276 278 292 318 308 303 292 293 293 285 285 289 231 229 210 213 219 232 231 236 234
228 246 272 289 290 286 304 288 292 277 270 303 286 244 182 206 212 226 236 251 348 349 294 349 325 284 291 304 313 289 332 327 284 279 263 249 270 272 240 270 204 204 214 220 204 210 229 222 221
241 244 272 280 269 268 277 304 291 268 272 335 308 295 193 211 216 221 232 199 220 333 312 330 306 285 276 297 304 301 338 300 254 243 230 260 246 241 259 253 224 216 209 200 222 241 202 229 202
234 254 253 260 254 258 275 269 265 284 297 279 250 239 233 220 221 210 224 185 264 272 343 318 332 309 287 290 302 328 295 263 273 250 228 253 298 288 289 277 253 231 190 185 207 225 221 203 186
233 237 253 258 253 257 239 258 178 267 170 276 248 248 237 230 213 193 199 209 211 252 291 326 307 295 300 307 289 262 259 262 256 245 264 243 253 265 259 267 232 249 198 202 184 224 212 168 198
256 254 255 253 253 250 229 254 245 250 214 250 251 240 242 217 206 198 193 194 215 226 237 304 240 259 281 259 260 288 283 265 278 314 343 265 218 243 246 255 200 217 203 200 186 223 157 189 203
246 242 254 249 224 224 218 255 258 216 239 252 247 231 238 223 208 196 179 183 185 243 236 265 312 312 312 303 292 277 286 270 281 305 338 301 280 243 225 238 255 186 179 189 192 185 176 179 205
225 245 242 247 199 221 206 257 277 235 271 265 276 267 231 212 203 194 182 183 189 205 232 282 341 299 321 292 271 308 309 272 249 183 236 268 273 250 216 215 217 186 187 195 211 182 173 179 193
227 232 231 248 212 199 251 251 254 246 247 267 262 243 231 213 196 188 195 181 180 198 201 221 290 300 323 283 167 10 325 273 223 165 226 264 262 251 226 220 192 190 187 183 196 189 183 191 170
248 264 274 283 286 247 252 276 282 286 274 265 267 235 229 209 190 182 189 182 180 200 208 216 332 308 326 308 328 20 357 304 177 237 235 245 257 250 226 198 168 171 183 185 175 188 193 232 138
243 256 262 262 272 271 281 284 283 288 273 270 264 231 215 196 188 177 183 187 186 192 194 190 226 353 325 337 12 353 5 9 23 41 10 328 194 200 208 189 178 178 160 172 183 187 159 154 153
229 243 250 262 276 252 285 268 265 262 268 267 255 230 206 196 188 180 183 188 183 190 182 165 132 58 13 323 38 45 32 295 282 335 42 32 223 171 171 182 189 173 175 166 177 183 171 141 128
234 227 248 268 274 264 271 294 294 275 274 267 221 205 225 182 182 181 183 185 187 180 171 150 131 85 114 359 42 346 3 339 17 353 351 8 115 142 170 177 166 188 205 141 170 169 166 147 142
235 243 250 230 256 271 266 266 283 265 248 269 238 218 179 173 179 180 183 179 184 169 165 162 157 116 104 70 18 351 7 26 339 41 27 43 72 54 140 177 179 198 235 146 170 164 165 162 140
232 226 253 267 257 256 260 263 269 285 91 298 240 128 145 167 171 174 178 173 176 175 166 168 153 130 156 75 57 19 30 9 18 39 56 74 68 91 131 151 166 186 187 168 176 158 148 130 127
210 214 220 225 230 246 249 242 286 296 305 279 284 151 151 160 168 171 173 177 172 174 168 177 168 140 170 93 62 24 8 37 41 63 72 52 69 37 87 131 131 158 169 161 155 141 134 135 128
197 213 228 217 235 253 128 240 291 170 355 275 274 302 133 161 168 172 174 177 175 172 175 190 168 152 165 92 85 52 28 59 52 68 88 72 48 49 75 112 119 127 142 146 127 128 126 116 123
185 216 228 260 285 288 275 282 215 195 230 205 185 173 152 165 166 172 173 175 178 172 177 180 162 149 155 117 113 80 59 75 86 95 98 80 40 66 84 104 89 116 122 125 120 127 120 120 117
217 197 218 228 250 262 249 248 242 183 147 92 153 178 156 164 167 172 173 174 180 174 170 182 176 167 159 131 134 110 89 90 106 90 90 95 116 57 104 96 92 103 114 118 124 125 120 118 119
205 229 200 249 224 236 251 271 96 107 96 122 146 158 162 167 169 172 172 171 180 173 176 180 189 160 163 143 129 123 99 100 98 86 77 87 97 76 97 110 105 103 113 130 123 125 129 125 127
213 210 215 214 222 252 272 239 98 167 141 191 138 159 164 171 171 170 172 170 177 177 170 176 186 169 172 156 134 128 118 106 101 93 94 104 96 84 81 91 107 107 112 124 135 132 135 132 129